24/03/2024 08:15:00,0.982
24/03/2024 08:30:00,0.981
24/03/2024 08:45:00,0.98
24/03/2024 09:00:00,0.978
24/03/2024 09:15:00,0.978
24/03/2024 09:30:00,0.976
24/03/2024 09:45:00,0.975
24/03/2024 10:00:00,0.973
24/03/2024 10:15:00,0.972
24/03/2024 10:30:00,0.97
24/03/2024 10:45:00,0.968
24/03/2024 11:00:00,0.967
24/03/2024 11:15:00,0.966
24/03/2024 11:30:00,0.965
24/03/2024 11:45:00,0.965
24/03/2024 12:00:00,0.963
24/03/2024 12:15:00,0.962
24/03/2024 12:30:00,0.96
24/03/2024 12:45:00,0.958
24/03/2024 13:00:00,0.958
24/03/2024 13:15:00,0.957
24/03/2024 13:30:00,0.955
24/03/2024 13:45:00,0.955
24/03/2024 14:00:00,0.954
24/03/2024 14:15:00,0.953
24/03/2024 14:30:00,0.952
24/03/2024 14:45:00,0.95
24/03/2024 15:00:00,0.949
24/03/2024 15:15:00,0.948
24/03/2024 15:30:00,0.947
24/03/2024 15:45:00,0.946
24/03/2024 16:00:00,0.945
24/03/2024 16:15:00,0.944
24/03/2024 16:30:00,0.943
24/03/2024 16:45:00,0.942
24/03/2024 17:00:00,0.941
24/03/2024 17:15:00,0.94
24/03/2024 17:30:00,0.938
24/03/2024 17:45:00,0.937
24/03/2024 18:00:00,0.936
24/03/2024 18:15:00,0.935
24/03/2024 18:30:00,0.934
24/03/2024 18:45:00,0.932
24/03/2024 19:00:00,0.932
24/03/2024 19:15:00,0.931
24/03/2024 19:30:00,0.93
24/03/2024 19:45:00,0.93
24/03/2024 20:00:00,0.929
24/03/2024 20:15:00,0.927
24/03/2024 20:30:00,0.927
24/03/2024 20:45:00,0.925
24/03/2024 21:00:00,0.924
24/03/2024 21:15:00,0.924
24/03/2024 21:30:00,0.922
24/03/2024 21:45:00,0.921
24/03/2024 22:00:00,0.92
24/03/2024 22:15:00,0.919
24/03/2024 22:30:00,0.918
24/03/2024 22:45:00,0.917
24/03/2024 23:00:00,0.916
24/03/2024 23:15:00,0.915
24/03/2024 23:30:00,0.914
24/03/2024 23:45:00,0.914
25/03/2024 00:00:00,0.912
25/03/2024 00:15:00,0.912
25/03/2024 00:30:00,0.912
25/03/2024 00:45:00,0.911
25/03/2024 01:00:00,0.909
25/03/2024 01:15:00,0.908
25/03/2024 01:30:00,0.907
25/03/2024 01:45:00,0.906
25/03/2024 02:00:00,0.906
25/03/2024 02:15:00,0.904
25/03/2024 02:30:00,0.903
25/03/2024 02:45:00,0.902
25/03/2024 03:00:00,0.902
25/03/2024 03:15:00,0.901
25/03/2024 03:30:00,0.901
25/03/2024 03:45:00,0.899
25/03/2024 04:00:00,0.899
25/03/2024 04:15:00,0.897
25/03/2024 04:30:00,0.897
25/03/2024 04:45:00,0.896
25/03/2024 05:00:00,0.895
25/03/2024 05:15:00,0.894
25/03/2024 05:30:00,0.894
25/03/2024 05:45:00,0.893
25/03/2024 06:00:00,0.892
25/03/2024 06:15:00,0.891
25/03/2024 06:30:00,0.89
25/03/2024 06:45:00,0.889
25/03/2024 07:00:00,0.889
25/03/2024 07:15:00,0.888
25/03/2024 07:30:00,0.888
25/03/2024 07:45:00,0.887
25/03/2024 08:00:00,0.886
25/03/2024 08:15:00,0.886
25/03/2024 08:30:00,0.885
25/03/2024 08:45:00,0.885
25/03/2024 09:00:00,0.884
25/03/2024 09:15:00,0.884
25/03/2024 09:30:00,0.884
25/03/2024 09:45:00,0.884
25/03/2024 10:00:00,0.884
25/03/2024 10:15:00,0.883
25/03/2024 10:30:00,0.883
25/03/2024 10:45:00,0.883
25/03/2024 11:00:00,0.883
25/03/2024 11:15:00,0.882
25/03/2024 11:30:00,0.881
25/03/2024 11:45:00,0.882
25/03/2024 12:00:00,0.881
25/03/2024 12:15:00,0.881
25/03/2024 12:30:00,0.881
25/03/2024 12:45:00,0.881
25/03/2024 13:00:00,0.88
25/03/2024 13:15:00,0.88
25/03/2024 13:30:00,0.879
25/03/2024 13:45:00,0.879
25/03/2024 14:00:00,0.879
25/03/2024 14:15:00,0.879
25/03/2024 14:30:00,0.879
25/03/2024 14:45:00,0.879
25/03/2024 15:00:00,0.878
25/03/2024 15:15:00,0.878
25/03/2024 15:30:00,0.878
25/03/2024 15:45:00,0.878
25/03/2024 16:00:00,0.877
25/03/2024 16:15:00,0.877
25/03/2024 16:30:00,0.877
25/03/2024 16:45:00,0.876
25/03/2024 17:00:00,0.876
25/03/2024 17:15:00,0.876
25/03/2024 17:30:00,0.876
25/03/2024 17:45:00,0.876
25/03/2024 18:00:00,0.876
25/03/2024 18:15:00,0.876
25/03/2024 18:30:00,0.876
25/03/2024 18:45:00,0.876
25/03/2024 19:00:00,0.877
25/03/2024 19:15:00,0.878
25/03/2024 19:30:00,0.879
25/03/2024 19:45:00,0.879
25/03/2024 20:00:00,0.879
25/03/2024 20:15:00,0.88
25/03/2024 20:30:00,0.881
25/03/2024 20:45:00,0.882
25/03/2024 21:00:00,0.884
25/03/2024 21:15:00,0.885
25/03/2024 21:30:00,0.887
25/03/2024 21:45:00,0.889
25/03/2024 22:00:00,0.891
25/03/2024 22:15:00,0.892
25/03/2024 22:30:00,0.894
25/03/2024 22:45:00,0.897
25/03/2024 23:00:00,0.899
25/03/2024 23:15:00,0.901
25/03/2024 23:30:00,0.903
25/03/2024 23:45:00,0.905
26/03/2024 00:00:00,0.907
26/03/2024 00:15:00,0.91
26/03/2024 00:30:00,0.912
26/03/2024 00:45:00,0.914
26/03/2024 01:00:00,0.917
26/03/2024 01:15:00,0.919
26/03/2024 01:30:00,0.921
26/03/2024 01:45:00,0.922
26/03/2024 02:00:00,0.925
26/03/2024 02:15:00,0.927
26/03/2024 02:30:00,0.929
26/03/2024 02:45:00,0.93
26/03/2024 03:00:00,0.932
26/03/2024 03:15:00,0.934
26/03/2024 03:30:00,0.936
26/03/2024 03:45:00,0.938
26/03/2024 04:00:00,0.939
26/03/2024 04:15:00,0.94
26/03/2024 04:30:00,0.942
26/03/2024 04:45:00,0.943
26/03/2024 05:00:00,0.945
26/03/2024 05:15:00,0.945
26/03/2024 05:30:00,0.947
26/03/2024 05:45:00,0.948
26/03/2024 06:00:00,0.95
26/03/2024 06:15:00,0.95
26/03/2024 06:30:00,0.953
26/03/2024 06:45:00,0.953
26/03/2024 07:00:00,0.955
26/03/2024 07:15:00,0.955
26/03/2024 07:30:00,0.957
26/03/2024 07:45:00,0.958
26/03/2024 08:00:00,0.958
26/03/2024 08:15:00,0.96
26/03/2024 08:30:00,0.96
26/03/2024 08:45:00,0.962
26/03/2024 09:00:00,0.963
26/03/2024 09:15:00,0.964
26/03/2024 09:30:00,0.964
26/03/2024 09:45:00,0.965
26/03/2024 10:00:00,0.966
26/03/2024 10:15:00,0.966
26/03/2024 10:30:00,0.967
26/03/2024 10:45:00,0.967
26/03/2024 11:00:00,0.967
26/03/2024 11:15:00,0.967
26/03/2024 11:30:00,0.967
26/03/2024 11:45:00,0.967
26/03/2024 12:00:00,0.967
26/03/2024 12:15:00,0.968
26/03/2024 12:30:00,0.968
26/03/2024 12:45:00,0.968
26/03/2024 13:00:00,0.968
26/03/2024 13:15:00,0.968
26/03/2024 13:30:00,0.969
26/03/2024 13:45:00,0.969
26/03/2024 14:00:00,0.969
26/03/2024 14:15:00,0.969
26/03/2024 14:30:00,0.969
26/03/2024 14:45:00,0.967
26/03/2024 15:00:00,0.966
26/03/2024 15:15:00,0.965
26/03/2024 15:30:00,0.964
26/03/2024 15:45:00,0.962
26/03/2024 16:00:00,0.961
26/03/2024 16:15:00,0.961
26/03/2024 16:30:00,0.959
26/03/2024 16:45:00,0.958
26/03/2024 17:00:00,0.957
26/03/2024 17:15:00,0.956
26/03/2024 17:30:00,0.953
26/03/2024 17:45:00,0.951
26/03/2024 18:00:00,0.951
26/03/2024 18:15:00,0.948
26/03/2024 18:30:00,0.947
26/03/2024 18:45:00,0.946
26/03/2024 19:00:00,0.945
26/03/2024 19:15:00,0.943
26/03/2024 19:30:00,0.942
26/03/2024 19:45:00,0.941
26/03/2024 20:00:00,0.939
26/03/2024 20:15:00,0.938
26/03/2024 20:30:00,0.938
26/03/2024 20:45:00,0.937
26/03/2024 21:00:00,0.936
26/03/2024 21:15:00,0.934
26/03/2024 21:30:00,0.932
26/03/2024 21:45:00,0.932
26/03/2024 22:00:00,0.93
26/03/2024 22:15:00,0.928
26/03/2024 22:30:00,0.927
26/03/2024 22:45:00,0.925
26/03/2024 23:00:00,0.924
26/03/2024 23:15:00,0.923
26/03/2024 23:30:00,0.922
26/03/2024 23:45:00,0.919
27/03/2024 00:00:00,0.918
27/03/2024 00:15:00,0.916
27/03/2024 00:30:00,0.916
27/03/2024 00:45:00,0.914
27/03/2024 01:00:00,0.914
27/03/2024 01:15:00,0.913
27/03/2024 01:30:00,0.911
27/03/2024 01:45:00,0.91
27/03/2024 02:00:00,0.91
27/03/2024 02:15:00,0.909
27/03/2024 02:30:00,0.908
27/03/2024 02:45:00,0.908
27/03/2024 03:00:00,0.907
27/03/2024 03:15:00,0.906
27/03/2024 03:30:00,0.906
27/03/2024 03:45:00,0.906
27/03/2024 04:00:00,0.906
27/03/2024 04:15:00,0.906
27/03/2024 04:30:00,0.906
27/03/2024 04:45:00,0.906
27/03/2024 05:00:00,0.906
27/03/2024 05:15:00,0.908
27/03/2024 05:30:00,0.911
27/03/2024 05:45:00,0.912
27/03/2024 06:00:00,0.914
27/03/2024 06:15:00,0.918
27/03/2024 06:30:00,0.923
27/03/2024 06:45:00,0.927
27/03/2024 07:00:00,0.932
27/03/2024 07:15:00,0.937
27/03/2024 07:30:00,0.945
27/03/2024 07:45:00,0.951
27/03/2024 08:00:00,0.956
27/03/2024 08:15:00,0.962
27/03/2024 08:30:00,0.965
27/03/2024 08:45:00,0.97
27/03/2024 09:00:00,0.972
27/03/2024 09:15:00,0.974
27/03/2024 09:30:00,0.978
27/03/2024 09:45:00,0.984
27/03/2024 10:00:00,0.993
27/03/2024 10:15:00,1.004
27/03/2024 10:30:00,1.018
27/03/2024 10:45:00,1.031
27/03/2024 11:00:00,1.041
27/03/2024 11:15:00,1.048
27/03/2024 11:30:00,1.052
27/03/2024 11:45:00,1.056
27/03/2024 12:00:00,1.056
27/03/2024 12:15:00,1.059
27/03/2024 12:30:00,1.059
27/03/2024 12:45:00,1.058
27/03/2024 13:00:00,1.058
27/03/2024 13:15:00,1.058
27/03/2024 13:30:00,1.058
27/03/2024 13:45:00,1.058
27/03/2024 14:00:00,1.058
27/03/2024 14:15:00,1.058
27/03/2024 14:30:00,1.059
27/03/2024 14:45:00,1.059
27/03/2024 15:00:00,1.059
27/03/2024 15:15:00,1.059
27/03/2024 15:30:00,1.061
27/03/2024 15:45:00,1.061
27/03/2024 16:00:00,1.062
27/03/2024 16:15:00,1.062
27/03/2024 16:30:00,1.062
27/03/2024 16:45:00,1.063
27/03/2024 17:00:00,1.064
27/03/2024 17:15:00,1.066
27/03/2024 17:30:00,1.069
27/03/2024 17:45:00,1.072
27/03/2024 18:00:00,1.076
27/03/2024 18:15:00,1.079
27/03/2024 18:30:00,1.081
27/03/2024 18:45:00,1.082
27/03/2024 19:00:00,1.084
27/03/2024 19:15:00,1.084
27/03/2024 19:30:00,1.087
27/03/2024 19:45:00,1.089
27/03/2024 20:00:00,1.092
27/03/2024 20:15:00,1.094
27/03/2024 20:30:00,1.098
27/03/2024 20:45:00,1.101
27/03/2024 21:00:00,1.102
27/03/2024 21:15:00,1.107
27/03/2024 21:30:00,1.107
27/03/2024 21:45:00,1.11
27/03/2024 22:00:00,1.111
28/03/2024 08:15:00,1.115
28/03/2024 08:30:00,1.114
28/03/2024 08:45:00,1.111
28/03/2024 09:00:00,1.109
28/03/2024 09:15:00,1.107
28/03/2024 09:30:00,1.105
28/03/2024 09:45:00,1.102
28/03/2024 10:00:00,1.101
28/03/2024 10:15:00,1.098
28/03/2024 10:30:00,1.096
28/03/2024 10:45:00,1.094
28/03/2024 11:00:00,1.092
28/03/2024 11:15:00,1.088
28/03/2024 11:30:00,1.086
28/03/2024 11:45:00,1.082
28/03/2024 12:00:00,1.079
28/03/2024 12:15:00,1.077
28/03/2024 12:30:00,1.074
28/03/2024 12:45:00,1.069
28/03/2024 13:00:00,1.066
28/03/2024 13:15:00,1.065
28/03/2024 13:30:00,1.062
28/03/2024 13:45:00,1.059
28/03/2024 14:00:00,1.056
28/03/2024 14:15:00,1.054
28/03/2024 14:30:00,1.052
28/03/2024 14:45:00,1.051
28/03/2024 15:00:00,1.049
28/03/2024 15:15:00,1.047
28/03/2024 15:30:00,1.046
28/03/2024 15:45:00,1.043
28/03/2024 16:00:00,1.041
28/03/2024 16:15:00,1.038
28/03/2024 16:30:00,1.036
28/03/2024 16:45:00,1.033
28/03/2024 17:00:00,1.032
28/03/2024 17:15:00,1.028
28/03/2024 17:30:00,1.027
28/03/2024 17:45:00,1.026
28/03/2024 18:00:00,1.023
28/03/2024 18:15:00,1.02
28/03/2024 18:30:00,1.018
28/03/2024 18:45:00,1.016
28/03/2024 19:00:00,1.015
28/03/2024 19:15:00,1.013
28/03/2024 19:30:00,1.012
28/03/2024 19:45:00,1.01
28/03/2024 20:00:00,1.008
28/03/2024 20:15:00,1.007
28/03/2024 20:30:00,1.005
28/03/2024 20:45:00,1.004
28/03/2024 21:00:00,1.003
28/03/2024 21:15:00,1.002
28/03/2024 21:30:00,1
28/03/2024 21:45:00,1
28/03/2024 22:00:00,0.999
28/03/2024 22:30:00,0.999
28/03/2024 22:45:00,0.999
28/03/2024 23:00:00,0.999
28/03/2024 23:15:00,1
28/03/2024 23:30:00,1.001
28/03/2024 23:45:00,1.003
29/03/2024 00:00:00,1.005
29/03/2024 00:15:00,1.007
29/03/2024 00:30:00,1.008
29/03/2024 00:45:00,1.01
29/03/2024 01:00:00,1.012
29/03/2024 01:15:00,1.014
29/03/2024 01:30:00,1.016
29/03/2024 01:45:00,1.02
29/03/2024 02:00:00,1.023
29/03/2024 02:15:00,1.028
29/03/2024 02:30:00,1.033
29/03/2024 02:45:00,1.038
29/03/2024 03:00:00,1.043
29/03/2024 03:15:00,1.048
29/03/2024 03:30:00,1.052
29/03/2024 03:45:00,1.058
29/03/2024 04:00:00,1.064
29/03/2024 04:15:00,1.074
29/03/2024 04:30:00,1.089
29/03/2024 04:45:00,1.112
29/03/2024 05:00:00,1.133
29/03/2024 05:15:00,1.146
29/03/2024 05:30:00,1.153
29/03/2024 05:45:00,1.158
29/03/2024 06:00:00,1.161
29/03/2024 06:15:00,1.161
29/03/2024 06:30:00,1.163
29/03/2024 06:45:00,1.163
29/03/2024 07:00:00,1.164
29/03/2024 07:15:00,1.164
29/03/2024 07:30:00,1.165
29/03/2024 07:45:00,1.166
